View from above orbital plane
|
View from above satellite
|
Ground track
|
The orbit data is extracted from the following two-line orbital elements,
1 22286U 92094A 21105.13716119 .00000232 00000-0 22250-4 0 9994
2 22286 82.5179 135.1840 0021783 155.0712 205.1563 14.88258350530383
Epoch (UTC): | 15 April 2021 03:17:30 |
Eccentricity: | 0.0021783 |
inclination: | 82.5179° |
perigee height: | 588 km |
apogee height: | 618 km |
right ascension of ascending node: | 135.1840° |
argument of perigee: | 155.0712° |
revolutions per day: | 14.88258350 |
mean anomaly at epoch: | 205.1563° |
orbit number at epoch: | 53038 |
The dashed part of the orbit path shows where the satellite is in the earth's shadow,
|
|